TimeEST,TemperatureF,Dew PointF,Humidity,Sea Level PressureIn,VisibilityMPH,Wind Direction,Wind SpeedMPH,Gust SpeedMPH,PrecipitationIn,Events,Conditions,WindDirDegrees,DateUTC
12:53 AM,57.0,46.0,67,30.05,10.0,Calm,Calm,-,N/A,,Clear,0,2012-12-28 05:53:00
1:53 AM,55.9,48.0,75,30.04,10.0,NNW,5.8,-,N/A,,Clear,340,2012-12-28 06:53:00
2:53 AM,55.9,50.0,80,30.03,10.0,North,3.5,-,N/A,,Clear,350,2012-12-28 07:53:00
3:53 AM,57.0,51.1,81,30.03,10.0,North,3.5,-,N/A,,Clear,350,2012-12-28 08:53:00
4:53 AM,57.9,52.0,81,30.03,10.0,Calm,Calm,-,N/A,,Clear,0,2012-12-28 09:53:00
5:53 AM,57.9,53.1,84,30.04,10.0,NNW,3.5,-,N/A,,Partly Cloudy,340,2012-12-28 10:53:00
6:53 AM,59.0,54.0,83,30.05,10.0,NNW,3.5,-,N/A,,Partly Cloudy,340,2012-12-28 11:53:00
7:53 AM,66.0,59.0,78,30.06,10.0,East,8.1,-,N/A,,Partly Cloudy,100,2012-12-28 12:53:00
8:53 AM,72.0,63.0,73,30.07,10.0,East,6.9,-,N/A,,Partly Cloudy,100,2012-12-28 13:53:00
9:53 AM,73.0,64.0,73,30.07,10.0,ESE,10.4,-,N/A,,Scattered Clouds,110,2012-12-28 14:53:00
10:10 AM,73.4,64.4,73,30.08,10.0,ESE,10.4,-,N/A,,Mostly Cloudy,120,2012-12-28 15:10:00
10:53 AM,75.0,66.0,73,30.08,10.0,SE,8.1,-,N/A,,Mostly Cloudy,140,2012-12-28 15:53:00
11:53 AM,75.9,66.0,71,30.05,10.0,SE,10.4,-,N/A,,Mostly Cloudy,140,2012-12-28 16:53:00
12:53 PM,75.0,66.9,76,30.02,10.0,SE,9.2,-,N/A,,Overcast,130,2012-12-28 17:53:00
1:53 PM,77.0,68.0,74,30.00,10.0,SSE,10.4,-,N/A,,Mostly Cloudy,150,2012-12-28 18:53:00
2:53 PM,77.0,69.1,76,29.97,10.0,SSE,11.5,-,N/A,,Mostly Cloudy,150,2012-12-28 19:53:00
3:29 PM,75.2,69.8,83,29.98,10.0,SSE,9.2,-,N/A,,Mostly Cloudy,160,2012-12-28 20:29:00
3:53 PM,75.9,69.1,79,29.98,10.0,SSE,9.2,-,N/A,,Overcast,160,2012-12-28 20:53:00
4:16 PM,75.2,69.8,83,29.98,10.0,SE,9.2,-,N/A,,Overcast,140,2012-12-28 21:16:00
4:53 PM,75.0,70.0,84,29.99,10.0,South,5.8,-,0.00,Rain,Light Rain,170,2012-12-28 21:53:00
5:53 PM,75.0,69.1,82,29.99,10.0,South,8.1,-,0.00,,Overcast,170,2012-12-28 22:53:00
6:53 PM,75.0,69.1,82,30.00,10.0,SSE,11.5,-,N/A,,Mostly Cloudy,150,2012-12-28 23:53:00
7:19 PM,75.2,69.8,83,30.00,10.0,SSE,8.1,-,N/A,,Scattered Clouds,160,2012-12-29 00:19:00
7:53 PM,75.0,69.1,82,30.01,10.0,SSE,9.2,-,N/A,,Scattered Clouds,160,2012-12-29 00:53:00
8:53 PM,75.0,69.1,82,30.02,10.0,SSE,6.9,-,N/A,,Scattered Clouds,150,2012-12-29 01:53:00
9:53 PM,75.0,69.1,82,30.01,10.0,SSE,9.2,-,N/A,,Partly Cloudy,150,2012-12-29 02:53:00
10:53 PM,75.0,70.0,84,30.01,10.0,SSE,4.6,-,N/A,,Partly Cloudy,160,2012-12-29 03:53:00
11:53 PM,73.9,70.0,87,29.99,10.0,South,5.8,-,N/A,,Partly Cloudy,170,2012-12-29 04:53:00